Content
SEND FEEDBACK

Daily
Averages
Monthly
Summary
Belgium

GENT, BELGIUM


Home > Europe > Belgium
Elevation: 43 feet     Latitude: 51 11N     Longitude: 003 49E

WEATHER
 
SELECT A DAY
Number of Records: 311,736;   Date Range: 7/1/96 - 9/29/14
 
SHARE

PRINT THIS DATA

[ ← Previous Day ]
WEATHER ALMANAC - JULY 30, 2014
[ Next Day → ]
[ °C ]   °F
Weather ElementAverageHighLow
Temperature66.3 °F72 °F (4:00 pm)59 °F (11:50 pm)
Dewpoint57 °F60.8 °F (12:20 am)51.8 °F (7:50 pm)
Humidity70.4 %88 % (12:50 am)48 % (4:00 pm)
Barometer29.95 in30.02 in (11:00 pm)29.89 in (2:20 am)
Wind Speed8 mph15.7 mph (5:00 pm)
Weather ElementAverage
Visibility12 mi
Wind DirectionNW (315.8 °)

Weather ElementTotal
Precipitation---
Cooling Degree Days0.5 (Base 65)
Growing Degree Days15.5 (Base 50)
Averaged from 71 records on July 30, 2014
WEATHER CONDITIONS BREAKOUT
WIND DIRECTION BREAKOUT
WEATHER BY HOUR - JULY 30, 2014
[ °C ]   °F
Local TimeTemperatureDewpointHumidityBarometerVisibilityWind DirectionWind SpeedGust SpeedPrecipitationEventsConditions
12:20 AM66.2 °F60.8 °F83 %29.92 inNNW (330°)10.4 mphClear
12:50 AM64.4 °F60.8 °F88 %29.92 inNorth (350°)6.9 mphClear
1:00 AM65.0 °F60.0 °F79 %29.91 in25.0 miNorth (350°)6.7 mph
1:20 AM64.4 °F60.8 °F88 %29.92 inNNW (340°)8.1 mphClear
1:50 AM64.4 °F59.0 °F83 %29.92 inNNW (340°)6.9 mphClear
2:00 AM64.0 °F60.0 °F81 %29.91 in22.0 miNNW (340°)6.7 mph
2:20 AM64.4 °F59.0 °F83 %29.89 inNNW (340°)6.9 mphClear
2:50 AM64.4 °F59.0 °F83 %29.89 inNorth (350°)6.9 mphClear
3:00 AM64.0 °F59.0 °F79 %29.91 in22.0 miNorth (350°)6.7 mph
3:20 AM62.6 °F59.0 °F88 %29.89 inNNW (340°)6.9 mphClear
3:50 AM62.6 °F59.0 °F88 %29.89 inNNW (330°)8.1 mphClear
4:00 AM63.0 °F59.0 °F82 %29.91 in19.0 miNNW (330°)8.9 mph
4:20 AM62.6 °F59.0 °F88 %29.89 inNNW (330°)8.1 mphClear
4:50 AM62.6 °F59.0 °F88 %29.89 inNNW (340°)5.8 mphClear
5:00 AM63.0 °F59.0 °F83 %29.91 in28.0 miNNW (340°)6.7 mph
5:20 AM62.6 °F59.0 °F88 %29.89 inNNW (340°)8.1 mphClear
5:50 AM62.6 °F59.0 °F88 %29.92 inNNW (340°)6.9 mphClear
6:00 AM63.0 °F59.0 °F84 %29.92 in22.0 miNNW (340°)6.7 mph
6:20 AM62.6 °F59.0 °F88 %29.92 in6.2 miNorth (350°)5.8 mphPartly Cloudy
6:50 AM62.6 °F59.0 °F88 %29.92 in6.2 miNNW (340°)5.8 mphPartly Cloudy
7:00 AM63.0 °F59.0 °F83 %29.93 in12.0 miNNW (340°)6.7 mphScattered Clouds
7:20 AM64.4 °F59.0 °F83 %29.92 in6.2 miNNW (340°)6.9 mphPartly Cloudy
7:50 AM64.4 °F59.0 °F83 %29.92 in6.2 miNNW (340°)5.8 mphPartly Cloudy
8:00 AM64.0 °F59.0 °F79 %29.94 in12.0 miNNW (340°)6.7 mphScattered Clouds
8:20 AM64.4 °F59.0 °F83 %29.92 in6.2 miNorth (350°)6.9 mphPartly Cloudy
8:50 AM66.2 °F59.0 °F78 %29.95 in6.2 miNorth (360°)6.9 mphPartly Cloudy
9:00 AM66.0 °F58.0 °F70 %29.95 in12.0 miNorth6.7 mphScattered Clouds
9:20 AM66.2 °F59.0 °F78 %29.95 in6.2 miNorth (350°)5.8 mphPartly Cloudy
9:50 AM68.0 °F57.2 °F68 %29.95 in6.2 miNorth (10°)6.9 mphPartly Cloudy
10:00 AM69.0 °F57.0 °F56 %29.95 in12.0 miNorth (10°)6.7 mphPartly Cloudy
10:20 AM68.0 °F53.6 °F60 %29.95 in6.2 miNNW (340°)6.9 mphPartly Cloudy
10:50 AM66.2 °F53.6 °F64 %29.95 in6.2 miNorth (350°)6.9 mphPartly Cloudy
11:00 AM67.0 °F54.0 °F55 %29.96 in12.0 miNorth (350°)6.7 mphMostly Cloudy
11:20 AM66.2 °F57.2 °F73 %29.95 in6.2 miNorth (350°)5.8 mphMostly Cloudy
11:50 AM68.0 °F57.2 °F68 %29.95 in6.2 miNorth (350°)4.6 mphMostly Cloudy
12:00 PM68.0 °F57.0 °F60 %29.96 in12.0 miNorth (350°)4.5 mphMostly Cloudy
12:20 PM68.0 °F57.2 °F68 %29.95 in6.2 miWNW (290°)5.8 mphMostly Cloudy
12:50 PM68.0 °F59.0 °F73 %29.95 in6.2 miNNW (330°)5.8 mphScattered Clouds
1:00 PM69.0 °F60.0 °F65 %29.97 in22.0 miNNW (330°)6.7 mphOvercast
1:20 PM69.8 °F59.0 °F68 %29.95 in6.2 miWNW (300°)5.8 mphMostly Cloudy
1:50 PM69.8 °F57.2 °F64 %29.95 in6.2 miNorth (350°)4.6 mphMostly Cloudy
2:00 PM69.0 °F58.0 °F59 %29.97 in22.0 miNorth (350°)4.5 mphMostly Cloudy
2:20 PM71.6 °F59.0 °F64 %29.95 in6.2 miWNW (290°)8.1 mphScattered Clouds
2:50 PM69.8 °F59.0 °F68 %29.95 in6.2 miNW (320°)13.8 mphScattered Clouds
3:00 PM69.0 °F58.0 °F60 %29.97 in22.0 miNW (320°)13.4 mphPartly Cloudy
3:20 PM71.6 °F57.2 °F60 %29.95 in6.2 miNW (320°)11.5 mphPartly Cloudy
3:50 PM71.6 °F57.2 °F60 %29.95 in6.2 miNW (320°)12.7 mphScattered Clouds
4:00 PM72.0 °F56.0 °F48 %29.97 in22.0 miNW (320°)13.4 mphPartly Cloudy
4:20 PM71.6 °F57.2 °F60 %29.98 in6.2 miWNW (300°)13.8 mphScattered Clouds
4:50 PM69.8 °F55.4 °F60 %29.98 in6.2 miNW (320°)15.0 mphScattered Clouds
5:00 PM70.0 °F55.0 °F49 %29.97 in22.0 miNW (320°)15.7 mphPartly Cloudy
5:20 PM71.6 °F55.4 °F57 %29.98 in6.2 miWNW (300°)15.0 mphScattered Clouds
5:50 PM69.8 °F55.4 °F60 %29.98 in6.2 miNW (320°)10.4 mphScattered Clouds
6:00 PM70.0 °F55.0 °F50 %29.99 in22.0 miNW (320°)11.2 mphPartly Cloudy
6:20 PM69.8 °F55.4 °F60 %29.98 in6.2 miNW (320°)13.8 mphPartly Cloudy
6:50 PM69.8 °F53.6 °F56 %29.98 in6.2 miNW (320°)11.5 mphMostly Cloudy
7:00 PM69.0 °F54.0 °F49 %29.98 in25.0 miNW (320°)11.2 mphMostly Cloudy
7:20 PM68.0 °F53.6 °F60 %29.98 in6.2 miNNW (330°)11.5 mphScattered Clouds
7:50 PM68.0 °F51.8 °F56 %29.98 in6.2 miNW (320°)11.5 mphPartly Cloudy
8:00 PM68.0 °F53.0 °F48 %29.99 in19.0 miNW (320°)11.2 mphScattered Clouds
8:20 PM66.2 °F51.8 °F60 %29.98 in6.2 miNNW (330°)10.4 mphPartly Cloudy
8:50 PM66.2 °F53.6 °F64 %29.98 inNNW (330°)10.4 mphClear
9:00 PM66.0 °F53.0 °F53 %30.00 in19.0 miNNW (330°)8.9 mphClear
9:20 PM64.4 °F53.6 °F68 %30.01 inNorth (350°)6.9 mphClear
9:50 PM64.4 °F53.6 °F68 %30.01 inNorth (350°)5.8 mphClear
10:00 PM64.0 °F54.0 °F61 %30.01 in19.0 miNorth (350°)6.7 mphClear
10:20 PM64.4 °F53.6 °F68 %30.01 inNNW (340°)4.6 mphClear
10:50 PM64.4 °F55.4 °F73 %30.01 inNorth (350°)3.5 mphClear
11:00 PM64.0 °F55.0 °F64 %30.02 in19.0 miNorth (350°)4.5 mphClear
11:20 PM62.6 °F55.4 °F77 %30.01 inNorth (350°)4.6 mphClear
11:50 PM59.0 °F53.6 °F82 %30.01 inVariable1.2 mphClear
Hourly data recorded from EBAW, located miles away from Gent, Belgium







STORIES FROM OUR PARTNERS